Weather in Tundutovo

Russia / Republic of Kalmykia     47°56′23″N   44°37′42″E
temp.,
°C
wind,
m/s
gust,
m/s
humid.,
%
clouds,
%
prec.,
mm/h
press.,
hPa
HPBL,
m
25 january, tue
tue2500:00−3ene4797100 1.8 1023337
03:00−3ene3698100 2.9 1022252
06:00−3ne2397100 1.3 1023104
09:00−4nne119878 1.6 102335
12:00−2wnw229480 0.0 1023288
15:00−1wnw3487100 0.1 1024484
18:00−2wnw3489100 0.0 1024139
21:00−4wsw2295100 0.0 102422
26 january, wed
wed2600:00−4w3694100 0.1 1023128
03:00−4w3494100 0.1 102380
06:00−2wnw3483100 0.0 1022117
09:00−1wsw1286100 0.0 1023126
12:00−1sw348962 0.0 1022428
15:000sw3383100 0.0 1022655
18:00−1sw2285100 0.0 102217
21:00−2sse1186100 0.0 102212
27 january, thu
thu2700:00−3se229392 0.0 102236
03:00−5ese229599 0.0 102130
06:00−6ese2397100 0.0 102139
09:00−5se2596100 0.0 1021150
12:00−2se3489100 0.0 1020414
15:00−1se348590 0.0 1019575
18:00−2sse2387100 0.0 101966
21:00−3se3496100 0.1 1019157
28 january, fri
fri2800:00−3ssw3698100 0.3 1018162
03:00−7w369392 0.3 101985
06:00−8w369599 0.0 1018104
09:00−7wsw369448 0.0 1019147
12:00−3wsw478989 0.0 1019429
15:00−1wsw5784100 0.0 1018706
18:00−3ssw478863 0.0 1017141
21:00−3ssw51191100 0.0 1017256
29 january, sat
sat2900:00−1ssw61392100 0.0 1016374
03:00+1sw81598100 0.1 1015669
06:00+1sw91798100 0.1 1015810
09:00+1wsw91792100 0.1 1016842
12:00+1sw816100100 0.1 1016799
15:00+1sw91595100 0.1 1016831
18:00+1sw81396100 0.0 1016602
21:00+1sw91594100 0.1 1016869